SCP
1 1 1 0 0 0 0 0 0 0 0 0 0 0 0 0 0 0 0 0 0 0 0 1 1 1 1 1 0 0 0 0 0 0 1 1 1 1 1 1 1 1 1 1 1 1 0 1 1
1 1 1 0 0 0 0 0 0 0 0 0 0 0 0 0 0 0 0 0 0 0 0 0 1 1 1 0 0 0 0 0 0 0 0 0 1 1 1 1 1 1 0 0 1 0 0 1 1
1 1 0 0 0 0 0 0 0 0 0 0 0 0 0 0 0 0 0 0 0 0 0 0 0 0 0 0 0 0 0 0 0 0 0 0 0 0 0 0 0 0 0 0 0 0 0 0 1
1 1 0 0 0 0 0 0 0 0 0 0 0 0 0 0 0 0 0 0 0 0 0 0 0 0 0 0 0 0 0 0 0 0 0 0 0 0 0 0 0 0 0 0 0 0 0 0 0
0 0 0 0 0 0 0 0 0 0 0 0 0 0 0 0 0 0 0 0 0 0 0 0 0 0 0 0 0 0 0 0 0 0 0 0 0 0 0 0 0 0 0 0 0 0 0 0 0
0 0 0 0 0 0 0 0 0 0 0 0 0 0 0 0 0 0 0 0 0 0 0 0 0 0 0 0 0 0 0 0 0 0 0 0 0 0 0 0 0 0 0 0 0 0 0 0 0
0 0 0 0 0 0 0 0 0 0 0 0 0 0 0 0 0 0 0 0 0 0 0 0 0 0 0 0 0 0 0 0 0 0 0 1 0 0 0 0 0 0 0 0 0 0 0 0 0
0 0 0 0 0 0 0 0 0 0 0 0 0 0 0 0 0 0 0 0 0 0 1 0 0 0 0 0 0 0 0 0 0 0 0 0 0 0 0 0 0 0 0 0 0 0 0 0 0
0 0 0 0 0 0 0 0 0 0 0 0 0 0 0 0 0 0 0 0 0 0 0 0 0 0 0 0 0 0 0 0 0 0 0 0 0 0 0 0 0 0 0 0 0 0 0 0 0
0 0 0 0 0 0 0 0 0 0 0 0 0 0 0 0 0 0 0 0 0 0 0 0 0 0 0 0 0 0 0 0 0 0 0 0 0 0 0 0 0 0 0 0 0 0 0 0 0
0 0 0 0 0 0 0 0 0 0 0 0 0 0 1 1 1 0 0 0 0 0 0 0 0 0 0 0 0 0 0 0 0 0 0 0 0 0 0 0 0 0 0 0 0 0 0 0 0
0 1 1 0 0 0 0 0 0 0 0 0 0 0 1 1 1 0 0 0 0 0 0 0 0 0 0 0 0 0 0 0 0 0 0 0 0 0 0 0 0 0 0 0 0 0 0 0 0
1 1 1 0 0 0 0 0 0 0 0 0 0 0 1 1 0 0 0 0 0 0 0 0 0 0 0 0 0 0 0 0 0 0 0 0 0 0 0 0 0 0 0 0 0 0 0 0 0
1 0 0 0 0 0 0 0 0 0 1 0 0 0 0 0 0 0 0 0 0 0 0 0 0 0 0 0 0 0 0 0 0 0 0 0 0 0 0 0 0 0 0 0 0 0 0 0 0
1 0 0 0 0 0 0 0 0 0 0 0 0 0 0 0 0 0 0 0 0 0 0 0 0 0 0 0 0 0 0 0 0 0 0 0 0 0 0 0 0 0 0 0 0 0 0 0 0
0 0 0 0 0 0 0 0 0 0 0 0 0 0 0 0 0 0 0 0 0 0 0 0 0 0 0 0 0 0 0 0 0 0 0 0 0 0 0 0 0 0 0 0 0 0 0 0 0
0 0 0 0 0 0 0 0 0 0 0 0 0 0 0 0 0 0 0 0 0 0 0 0 0 0 0 0 0 0 0 0 0 0 0 0 0 0 0 0 0 0 0 0 0 0 0 0 0
0 0 0 0 0 0 0 0 0 0 0 0 0 0 0 0 0 0 0 0 1 1 1 0 0 0 0 0 0 0 0 0 0 0 0 0 0 0 0 0 0 0 0 0 0 0 0 0 0
0 0 0 0 0 0 0 0 0 0 0 0 0 0 0 0 0 0 1 1 1 1 1 0 0 0 0 0 0 0 0 0 0 0 0 0 0 0 0 0 0 0 0 0 0 0 0 0 0
0 0 0 0 0 0 0 0 0 0 0 0 0 0 0 0 0 0 0 1 1 1 1 0 0 0 0 0 0 0 0 0 0 0 0 0 0 0 0 0 0 0 0 0 0 0 0 0 0
0 0 0 0 0 0 0 0 0 0 0 0 0 0 0 0 0 0 0 0 0 1 0 0 0 0 0 0 0 0 0 0 0 0 0 0 0 0 0 0 0 0 0 0 0 0 0 0 0
0 0 0 0 0 0 0 0 0 0 0 0 0 0 0 0 0 0 0 0 0 0 0 0 0 0 0 0 0 0 0 0 0 0 0 0 0 0 0 0 0 0 0 0 0 0 0 0 0
0 0 0 0 0 0 0 0 0 0 0 0 0 0 0 0 0 0 0 0 0 0 0 0 0 0 0 0 0 0 0 0 0 0 0 0 0 0 0 0 0 0 0 0 0 0 0 0 0
0 0 0 0 0 0 0 0 0 0 0 0 0 0 0 0 0 0 0 0 0 0 0 0 0 0 0 0 0 0 0 0 0 0 0 0 0 0 0 0 0 0 0 0 0 0 0 0 0
0 0 0 0 0 0 0 0 0 0 0 0 0 0 0 0 0 1 1 1 0 0 0 0 0 0 0 0 0 0 0 0 0 0 0 0 0 0 0 0 0 0 0 0 0 0 0 0 0
0 0 0 0 0 0 0 0 0 0 0 0 0 1 0 0 1 1 1 1 1 0 0 0 0 0 0 0 0 0 0 0 0 0 0 0 0 0 0 0 0 0 0 0 0 0 0 0 0
0 0 0 0 0 0 0 0 0 0 0 0 0 0 0 1 1 1 1 1 1 0 0 0 0 0 0 0 0 0 0 0 0 0 0 0 0 0 0 0 0 0 0 0 0 0 0 0 0
0 0 0 0 0 0 0 0 0 0 0 0 0 1 1 1 1 1 1 1 1 0 0 0 0 0 0 0 0 0 0 0 0 0 0 0 0 0 0 0 0 0 0 0 0 0 0 0 0
0 0 0 0 0 0 0 0 0 0 0 0 1 1 1 1 1 1 1 1 1 0 0 0 0 0 0 0 0 0 0 0 0 0 0 0 0 0 0 0 0 0 0 0 0 0 0 0 0
0 0 0 0 0 0 0 0 0 0 0 0 1 1 1 1 1 1 1 1 1 1 0 0 0 0 0 0 0 0 0 0 0 0 0 0 0 0 0 0 0 0 0 0 0 0 0 0 0
Wind_Speed
1 1 3 3 4 4 3 1 1 2 4 4 8 10 8 6 5 6 2 6 8 6 5 7 11 12 12 12 12 12 12 11 11 11 11 11 11 10 10 10 10 10 9 9 9 8 8 7 7
1 1 3 3 4 3 1 1 3 3 6 6 8 8 8 7 6 7 4 7 8 7 5 7 11 12 12 12 12 12 12 11 11 10 10 10 10 10 9 10 9 9 9 9 8 7 7 7 7
1 1 2 3 3 3 4 3 5 6 6 4 6 6 6 5 5 5 6 8 8 6 5 7 12 12 11 12 11 11 11 11 10 10 10 10 10 9 9 9 9 8 8 8 7 7 7 7 7
2 3 4 4 4 1 4 4 5 6 5 6 7 6 4 3 4 7 9 9 8 6 5 7 12 12 11 11 11 10 10 10 10 10 10 10 9 9 9 8 8 7 7 7 7 6 7 7 7
3 3 4 3 2 2 3 4 4 5 4 6 8 7 4 4 9 11 9 9 8 6 5 6 11 11 11 10 10 9 9 9 9 9 8 8 8 8 8 7 7 7 7 6 6 6 6 6 6
3 4 4 2 2 2 2 4 6 9 8 8 8 7 4 4 8 8 8 8 7 7 5 5 10 11 10 9 9 8 8 7 7 7 6 6 6 6 6 6 6 6 6 5 5 5 5 5 6
4 3 2 3 3 2 3 4 5 7 6 4 6 7 4 3 6 7 8 7 6 6 5 3 4 6 8 8 8 7 6 5 5 4 4 4 4 4 5 5 5 5 4 4 4 5 5 5 6
4 4 2 2 3 2 2 4 5 7 6 5 5 8 6 6 6 7 7 6 5 5 4 4 3 3 3 3 6 5 4 4 3 2 2 2 1 2 2 3 3 3 3 3 4 4 5 5 5
4 4 1 3 4 3 3 5 4 5 6 4 4 6 8 10 8 7 6 4 4 5 3 4 4 3 2 2 3 3 2 2 2 2 1 1 1 1 1 0 1 2 3 4 4 4 5 6 6
4 3 2 3 5 5 4 5 5 5 7 6 7 8 9 9 8 7 7 6 5 5 4 4 4 4 3 2 2 1 1 1 1 1 1 0 0 1 1 1 2 3 4 4 5 5 5 4 3
2 3 1 3 5 6 5 4 4 8 5 9 13 13 10 8 7 7 6 6 6 5 5 5 5 4 3 1 1 1 1 1 1 1 1 1 1 1 1 1 2 3 3 3 4 4 3 3 2
3 2 3 4 5 4 4 4 5 5 6 9 12 13 9 8 7 7 6 5 4 5 5 5 5 4 3 3 2 1 1 1 1 2 2 2 1 1 1 1 1 1 1 2 2 2 3 3 3
3 3 4 5 6 5 6 6 6 6 8 10 11 10 9 8 7 6 6 5 5 5 5 5 5 5 4 3 2 2 2 2 2 2 2 2 2 1 1 1 1 2 1 2 2 3 4 3 4
4 5 5 5 6 5 8 4 6 7 10 11 10 8 8 8 8 6 5 5 5 5 5 5 6 5 5 3 3 2 2 2 3 3 3 3 2 2 2 2 2 2 2 2 3 3 3 3 3
6 7 5 3 3 3 7 5 4 9 10 10 9 8 7 7 8 8 8 7 7 7 6 6 6 6 5 4 4 3 2 3 3 3 4 4 3 3 3 3 3 3 2 3 3 4 3 3 4
4 4 2 0 1 1 5 4 4 8 10 8 7 7 7 6 8 8 7 7 7 7 7 6 7 6 5 4 4 3 3 3 3 3 3 4 4 4 4 3 3 3 3 3 3 3 3 3 3
2 3 3 2 2 2 4 4 4 6 9 8 7 7 7 5 5 6 7 8 8 8 7 6 6 6 5 4 4 3 3 3 2 3 3 4 5 5 4 3 3 3 3 3 3 3 3 3 3
3 3 3 3 3 4 4 4 5 6 8 8 7 6 5 6 7 7 8 8 8 8 8 7 5 5 5 4 3 3 3 2 2 3 3 4 4 5 4 3 4 4 4 4 3 4 3 2 2
4 4 3 3 3 4 5 4 5 6 6 7 6 6 6 6 6 6 8 8 8 7 7 6 6 5 5 3 3 2 2 1 1 2 3 4 4 4 4 3 4 4 3 3 3 3 4 3 2
4 4 2 1 2 4 4 3 4 5 8 9 9 8 8 6 4 5 7 7 8 8 7 7 7 6 5 3 3 3 2 1 1 1 2 3 4 4 4 4 3 3 3 4 4 3 2 2 3
3 5 4 3 1 2 3 1 3 4 5 6 7 8 8 9 9 8 8 7 7 8 8 8 7 6 6 5 3 3 3 2 2 2 1 2 2 3 3 3 3 3 3 3 3 3 3 2 2
2 4 5 5 4 2 3 2 5 6 6 8 9 9 9 9 9 9 9 8 8 8 8 8 7 7 6 6 5 5 3 2 2 1 1 1 1 2 3 3 3 3 2 3 2 3 2 3 1
3 3 4 4 3 1 1 2 5 4 7 10 11 11 11 10 11 11 10 10 9 8 8 8 7 6 6 6 7 6 4 3 1 1 1 0 1 1 2 3 3 3 2 2 3 3 3 2 2
4 5 4 4 3 1 4 4 5 6 11 11 10 10 10 10 10 10 9 8 7 7 7 7 8 6 6 6 6 6 6 5 4 2 2 1 0 1 1 2 3 3 2 2 2 2 3 2 2
5 6 3 2 1 4 3 3 7 9 10 12 12 11 10 10 10 9 9 8 8 8 9 8 8 7 6 7 6 6 6 6 6 4 3 2 1 1 1 2 2 2 2 2 2 2 2 2 2
3 6 5 3 3 3 1 4 6 5 6 8 10 9 9 10 9 10 10 10 10 10 9 9 9 7 7 7 6 5 6 4 4 4 4 4 3 3 2 2 2 2 2 2 2 2 1 2 2
4 3 5 4 1 0 2 3 5 2 1 5 7 8 10 10 10 10 10 10 10 10 10 10 10 7 7 7 6 5 5 5 4 4 4 3 3 3 3 3 3 2 2 2 2 2 1 2 2
4 5 4 3 2 1 2 2 3 3 3 4 7 9 10 10 9 8 9 9 9 9 8 8 8 8 7 6 6 5 5 5 4 4 4 4 4 3 4 3 3 2 2 2 2 2 1 2 1
2 2 3 3 3 4 1 5 4 5 5 6 8 9 10 10 9 8 7 8 8 7 7 7 7 6 6 6 5 4 4 4 4 4 4 4 4 4 4 4 3 3 2 2 2 2 2 2 1
4 4 5 4 2 2 2 5 5 3 3 5 6 7 8 9 8 8 7 7 7 7 7 7 7 7 6 6 5 5 4 4 4 4 4 4 4 4 4 4 3 3 2 2 3 2 2 2 1
Wind_Direction
357 83 96 67 60 59 67 42 122 88 71 59 73 82 80 57 81 120 159 129 123 120 110 105 103 102 101 99 95 91 90 89 87 85 83 83 82 81 80 80 78 76 73 69 66 65 66 68 66
47 92 78 63 83 86 83 146 110 98 133 126 77 72 75 71 76 105 119 127 123 119 112 111 106 104 102 100 97 93 92 90 88 85 84 83 83 81 81 81 78 73 71 68 65 62 62 66 63
293 156 87 72 88 138 149 163 123 96 107 99 79 54 68 91 102 115 137 134 120 112 110 117 111 108 106 102 99 96 94 92 89 87 88 87 84 81 79 81 79 74 70 67 64 60 61 64 60
64 47 54 67 80 108 152 153 121 107 75 65 96 68 58 67 110 129 136 129 122 118 118 121 117 113 110 105 101 99 96 94 91 89 88 89 87 84 81 80 78 74 69 66 62 59 57 57 55
70 73 61 61 83 98 125 139 115 102 83 81 94 91 67 46 106 127 133 129 127 125 126 128 123 119 116 112 108 104 99 95 94 94 91 90 89 88 86 83 80 75 69 65 59 54 55 53 51
59 67 85 106 109 96 103 113 101 96 104 101 97 100 89 104 116 131 135 133 134 136 136 133 131 127 124 120 116 111 106 98 96 97 96 95 94 94 92 89 84 76 67 62 55 48 49 47 49
101 91 128 145 130 105 123 116 110 118 115 111 113 101 120 130 134 132 132 134 135 139 140 138 136 132 132 131 127 121 114 107 102 102 104 107 104 99 100 94 87 78 67 56 46 39 37 36 42
124 99 89 127 133 134 133 111 112 117 112 116 111 127 153 167 144 125 122 128 136 145 150 153 151 141 133 137 139 129 115 106 99 102 115 124 114 93 101 95 87 77 64 47 31 24 24 24 32
96 83 137 175 153 152 134 106 88 76 99 85 83 125 146 149 133 120 118 122 143 156 168 165 169 167 165 178 159 125 101 75 56 33 77 74 354 347 356 338 67 51 41 33 26 16 16 20 33
84 119 203 185 155 143 130 115 125 98 91 91 93 105 127 139 137 140 148 155 162 168 181 176 172 178 187 185 121 62 29 15 23 8 9 43 307 299 320 344 11 17 21 17 20 17 14 22 28
99 149 136 103 128 132 128 114 111 120 124 146 143 145 149 148 152 158 165 165 170 171 174 176 175 174 169 149 120 88 34 13 11 9 38 92 67 7 21 16 355 356 1 3 3 12 19 21 41
89 66 103 117 116 116 118 107 98 122 155 156 150 152 154 156 164 169 168 165 155 147 152 158 160 152 147 130 117 110 75 43 25 6 41 84 75 52 36 28 350 1 6 17 17 32 40 38 52
88 99 91 96 104 105 101 103 113 124 138 143 145 149 159 164 168 175 168 156 140 133 134 137 139 136 130 116 106 95 77 59 44 32 32 69 89 80 63 42 29 28 36 53 53 52 53 51 55
134 112 95 89 90 104 108 105 106 142 144 145 150 157 166 166 168 169 166 153 141 134 131 128 122 124 119 111 103 90 81 62 51 40 37 56 77 82 74 57 40 31 37 51 64 63 64 53 60
115 96 70 63 81 112 106 82 131 154 151 151 158 163 166 174 167 170 172 161 154 144 136 129 124 117 111 106 101 92 83 70 55 42 42 54 64 71 74 62 43 34 43 53 57 54 53 53 55
81 78 93 313 115 151 118 146 184 161 152 157 168 168 166 181 178 176 170 161 156 145 141 139 127 117 108 102 99 92 81 72 55 44 43 49 58 72 73 64 46 38 48 52 60 53 53 46 49
54 123 153 192 212 155 125 160 190 169 157 165 174 173 168 177 179 173 168 161 156 148 142 134 130 125 118 111 105 95 83 71 56 50 47 47 54 65 75 66 49 51 55 47 59 54 62 60 51
174 158 157 185 204 141 134 165 177 176 163 171 176 176 174 180 188 171 165 160 155 149 144 141 138 134 124 111 95 76 65 55 48 52 54 55 55 64 72 69 54 55 58 46 50 56 48 58 55
153 149 154 203 188 142 156 171 185 185 174 180 186 185 186 196 202 171 159 155 150 150 149 152 145 145 135 124 119 109 100 66 44 47 60 61 60 66 71 72 59 59 65 59 57 63 53 37 43
146 141 140 124 150 140 158 197 196 189 195 192 192 196 195 197 197 177 160 159 161 163 162 158 157 157 153 148 147 144 139 131 112 42 46 53 61 65 82 82 76 70 72 56 48 58 66 33 37
162 165 166 154 105 84 129 272 225 221 213 208 206 203 197 194 191 181 170 171 168 170 172 168 168 162 158 147 121 96 72 53 44 33 19 18 58 69 78 86 87 78 80 74 58 68 84 66 24
167 182 156 142 124 208 176 209 253 215 220 217 214 207 201 198 191 182 176 177 179 182 176 169 168 163 159 149 142 145 149 163 193 183 193 11 46 68 80 89 93 91 86 86 69 77 87 96 55
182 171 143 139 127 92 220 169 265 201 217 222 215 208 204 197 189 185 184 182 183 176 171 170 165 165 163 156 155 154 159 172 167 147 137 76 19 44 82 93 99 99 92 92 82 76 75 88 103
127 80 54 54 80 271 224 179 252 212 210 211 208 202 198 192 189 189 188 177 175 171 166 164 163 169 166 160 160 162 164 163 157 167 163 170 341 355 73 102 102 104 103 106 101 94 89 87 88
90 93 54 6 4 251 217 187 244 228 210 202 197 196 191 186 182 183 181 177 175 172 171 169 166 174 176 167 170 174 173 172 178 181 178 177 184 205 190 132 120 113 121 117 105 95 85 89 93
158 137 153 186 218 273 261 223 258 251 211 193 187 181 177 177 181 185 185 181 179 177 175 172 173 179 181 178 181 181 178 178 185 186 178 184 192 198 184 161 151 144 138 121 106 93 90 88 89
148 178 174 144 201 275 282 290 316 359 153 168 167 167 178 182 184 187 186 182 180 179 180 178 177 181 185 184 180 183 187 185 186 187 177 181 193 192 175 166 159 153 144 135 124 104 101 94 85
162 158 120 131 155 208 292 280 257 258 221 188 176 176 182 185 185 184 186 185 183 179 177 174 175 182 184 181 182 184 188 183 176 166 170 178 188 181 167 166 162 159 154 144 125 118 110 97 77
153 151 134 133 155 153 220 278 246 222 214 194 186 181 177 179 180 183 185 182 176 168 166 169 174 173 173 176 173 164 173 173 164 166 174 176 176 169 167 166 161 161 159 146 133 135 129 114 76
165 177 144 148 199 167 162 269 283 224 204 183 181 179 177 175 176 177 179 172 169 170 170 173 174 173 176 173 166 164 162 161 164 174 179 172 167 170 171 162 159 168 166 157 152 147 138 138 141